Weather History for KORL - July, 2012

Change the Weather History Date:

Thursday, July 19, 2012

  Actual Average (KMCO) Record (KMCO)
Temperature  
Mean Temperature 84 °F 83 °F  
Max Temperature 95 °F 92 °F 100 °F (1914)
Min Temperature 75 °F 74 °F 67 °F (1946)
Degree Days  
Heating Degree Days 0 0  
Month to date heating degree days 0  
Since 1 June heating degree days 0  
Since 1 July heating degree days 0  
Cooling Degree Days 19 18  
Month to date cooling degree days 334  
Year to date cooling degree days 1625  
Since 1 June cooling degree days 824  
Growing Degree Days 34 (Base 50)    
Moisture  
Dew Point 72 °F    
Average Humidity 68    
Maximum Humidity 91    
Minimum Humidity 47    
Precipitation  
Precipitation 0.00 in 0.23 in 2.63 in (1965)
Month to date precipitation 4.39  
Year to date precipitation 26.60  
Sea Level Pressure  
Sea Level Pressure 30.15 in    
Wind  
Wind Speed 5 mph (SSW)    
Max Wind Speed 16 mph    
Max Gust Speed 17 mph    
Visibility 10 miles    
Events      
T = Trace of Precipitation, MM = Missing Value Source: NWS Daily Summary

Daily Weather History Graph

Daily Weather History Graph

Search for Another Location

Airport or City:

Trip Planner

Search our weather history database for the weather conditions in past years. The results will help you decide how hot, cold, wet, or windy it might be!

Date:

Astronomy

Jul. 19, 2012 Rise Set
Actual Time 6:40 AM EDT 8:23 PM EDT
Civil Twilight 6:13 AM EDT 8:49 PM EDT
Nautical Twilight 5:42 AM EDT 9:20 PM EDT
Astronomical Twilight 5:09 AM EDT 9:53 PM EDT
Moon 7:06 AM EDT (7/19) 8:38 PM EDT (7/19)
Length of Visible Light 14h 35m
Length of Day
13h 43m
New Moon, 0% of the Moon is Illuminated
Jul 19
New Moon
Jul 26
First Quarter
Aug 1
Full
Aug 9
Last Quarter
Aug 17
New

Hourly Weather History & Observations

Time (EDT) Temp. Heat Index Dew Point Humidity Pressure Visibility Wind Dir Wind Speed Gust Speed Precip Events Conditions
2:53 AM 75.9 °F - 73.0 °F 91% 30.14 in 10.0 mi Calm Calm - N/A   Clear
3:53 AM 77.0 °F - 73.9 °F 90% 30.13 in 10.0 mi South 4.6 mph - N/A   Clear
4:53 AM 77.0 °F - 73.0 °F 88% 30.14 in 10.0 mi Calm Calm - N/A   Clear
5:53 AM 77.0 °F - 73.0 °F 88% 30.15 in 10.0 mi South 3.5 mph - N/A   Clear
6:53 AM 77.0 °F - 73.9 °F 90% 30.16 in 10.0 mi South 3.5 mph - N/A   Clear
7:53 AM 78.1 °F - 73.9 °F 87% 30.17 in 10.0 mi SW 3.5 mph - N/A   Clear
8:53 AM 81.0 °F 86.2 °F 73.9 °F 79% 30.18 in 10.0 mi South 6.9 mph - N/A   Clear
9:53 AM 84.0 °F 91.9 °F 75.0 °F 74% 30.18 in 10.0 mi SSW 8.1 mph - N/A   Partly Cloudy
10:53 AM 87.1 °F 96.3 °F 75.0 °F 67% 30.19 in 10.0 mi SSW 11.5 mph - N/A   Scattered Clouds
11:41 AM 87.8 °F 97.6 °F 75.2 °F 66% 30.18 in 10.0 mi South 6.9 mph - N/A   Scattered Clouds
11:53 AM 88.0 °F 97.5 °F 75.0 °F 65% 30.19 in 10.0 mi SSW 10.4 mph - N/A   Mostly Cloudy
12:53 PM 90.0 °F 96.4 °F 71.1 °F 54% 30.17 in 10.0 mi SW 13.8 mph - N/A   Mostly Cloudy
1:53 PM 91.9 °F 98.4 °F 71.1 °F 50% 30.15 in 10.0 mi SSW 8.1 mph 17.3 mph N/A   Clear
2:53 PM 93.0 °F 99.0 °F 70.0 °F 47% 30.14 in 10.0 mi SW 10.4 mph - N/A   Scattered Clouds
3:53 PM 93.0 °F 100.7 °F 72.0 °F 50% 30.12 in 10.0 mi South 6.9 mph - N/A   Mostly Cloudy
4:53 PM 93.0 °F 99.0 °F 70.0 °F 47% 30.11 in 10.0 mi SW 9.2 mph - N/A   Scattered Clouds
5:50 PM 89.6 °F 98.2 °F 73.4 °F 59% 30.09 in 10.0 mi NW 15.0 mph - N/A   Partly Cloudy
5:53 PM 89.1 °F 97.0 °F 73.0 °F 59% 30.09 in 10.0 mi NW 16.1 mph - N/A   Partly Cloudy
6:53 PM 88.0 °F 94.7 °F 72.0 °F 59% 30.12 in 10.0 mi NNW 5.8 mph - N/A   Clear
7:53 PM 78.1 °F - 63.0 °F 60% 30.14 in 10.0 mi ESE 8.1 mph - N/A   Partly Cloudy
8:53 PM 80.1 °F 82.1 °F 66.0 °F 62% 30.12 in 10.0 mi Calm Calm - N/A   Clear
9:53 PM 81.0 °F 82.7 °F 64.9 °F 58% 30.13 in 10.0 mi Calm Calm - N/A   Clear
10:53 PM 79.0 °F - 69.1 °F 72% 30.14 in 10.0 mi ESE 4.6 mph - N/A   Clear
11:53 PM 75.9 °F - 69.1 °F 79% 30.15 in 10.0 mi SE 4.6 mph - N/A   Mostly Cloudy